The following orbital elements are taken from MPC 60280:
Epoch 2008 Feb. 24.0 TT = JDT 2454520.5
T 2008 Feb. 20.2224 TT MPC
q 4.119098 (2000.0) P Q
n 0.0972084 Peri. 186.9164 +0.6581527 +0.6913818
a 4.684539 Node 124.7576 -0.6722175 +0.7179047
e 0.120704 Incl. 21.2701 -0.3390555 -0.0812648
P 10.1
From 74 observations 2005 May 10-2007 July 5, mean residual 0".7.